Météo par heure à Abak

Ce jour, 15 Avril, Jeudi

Heure Température Précipitation Vent Pression Humidité
00:00 +27°C° 0 mm 1 m/s 753 mmHg 91%
01:00 +25°C° 0 mm 0 m/s 753 mmHg 92%
02:00 +25°C° 0 mm 0 m/s 752 mmHg 92%
03:00 +24°C° 0 mm 0 m/s 752 mmHg 92%
04:00 +24°C° 0 mm 0 m/s 752 mmHg 93%
05:00 +24°C° 0 mm 0 m/s 752 mmHg 92%
06:00 +26°C° 0 mm 1 m/s 752 mmHg 91%
07:00 +27°C° 0 mm 1 m/s 753 mmHg 90%
08:00 +28°C° 0 mm 1 m/s 753 mmHg 81%
09:00 +30°C° 0 mm 1 m/s 753 mmHg 72%
10:00 +32°C° 0 mm 1 m/s 753 mmHg 62%
11:00 +34°C° 0 mm 1 m/s 753 mmHg 57%
12:00 +35°C° 0 mm 1 m/s 752 mmHg 51%
13:00 +36°C° 0 mm 1 m/s 751 mmHg 46%
14:00 +36°C° 0 mm 1 m/s 751 mmHg 45%
15:00 +37°C° 0 mm 1 m/s 750 mmHg 45%
16:00 +37°C° 0 mm 1 m/s 749 mmHg 44%
17:00 +35°C° 0 mm 2 m/s 750 mmHg 53%
18:00 +32°C° 0 mm 2 m/s 750 mmHg 62%
19:00 +30°C° 0 mm 3 m/s 750 mmHg 71%
20:00 +30°C° 0 mm 2 m/s 751 mmHg 75%
21:00 +29°C° 0 mm 2 m/s 751 mmHg 79%
22:00 +28°C° 0 mm 2 m/s 751 mmHg 82%
23:00 +28°C° 0 mm 2 m/s 751 mmHg 84%

Demain, 16 Avril, Vendredi

Heure Température Précipitation Vent Pression Humidité
00:00 +28°C° 0 mm 2 m/s 751 mmHg 85%
01:00 +28°C° 0 mm 1 m/s 751 mmHg 87%
02:00 +27°C° 0 mm 1 m/s 751 mmHg 88%
03:00 +27°C° 0 mm 1 m/s 751 mmHg 89%
04:00 +27°C° 0 mm 1 m/s 751 mmHg 90%
05:00 +27°C° 0 mm 1 m/s 751 mmHg 90%
06:00 +27°C° 0 mm 1 m/s 751 mmHg 90%
07:00 +28°C° 0 mm 1 m/s 752 mmHg 90%
08:00 +29°C° 0.1 mm 1 m/s 752 mmHg 81%
09:00 +31°C° 0.1 mm 2 m/s 753 mmHg 72%
10:00 +34°C° 0.1 mm 2 m/s 753 mmHg 63%
11:00 +34°C° 0.1 mm 2 m/s 752 mmHg 62%
12:00 +34°C° 0.1 mm 3 m/s 752 mmHg 60%
13:00 +35°C° 0.1 mm 3 m/s 751 mmHg 58%
14:00 +35°C° 0.4 mm 3 m/s 751 mmHg 59%
15:00 +34°C° 0.4 mm 3 m/s 750 mmHg 60%
16:00 +34°C° 0.4 mm 3 m/s 750 mmHg 60%
17:00 +33°C° 0.1 mm 3 m/s 750 mmHg 66%
18:00 +31°C° 0.1 mm 3 m/s 750 mmHg 72%
19:00 +29°C° 0.1 mm 3 m/s 750 mmHg 77%
20:00 +29°C° 0 mm 2 m/s 751 mmHg 80%
21:00 +28°C° 0 mm 2 m/s 751 mmHg 83%
22:00 +28°C° 0 mm 2 m/s 752 mmHg 86%
23:00 +28°C° 0.1 mm 1 m/s 752 mmHg 88%

Après-demain, 17 Avril, Samedi

Heure Température Précipitation Vent Pression Humidité
00:00 +28°C° 0.1 mm 1 m/s 752 mmHg 89%
01:00 +27°C° 0.1 mm 1 m/s 752 mmHg 91%
02:00 +27°C° 0.1 mm 1 m/s 751 mmHg 91%
03:00 +27°C° 0.1 mm 1 m/s 751 mmHg 91%
04:00 +27°C° 0.1 mm 1 m/s 751 mmHg 91%
05:00 +27°C° 0 mm 1 m/s 751 mmHg 91%
06:00 +27°C° 0 mm 1 m/s 752 mmHg 90%
07:00 +27°C° 0 mm 1 m/s 752 mmHg 89%
08:00 +29°C° 0.2 mm 2 m/s 753 mmHg 82%
09:00 +30°C° 0.2 mm 2 m/s 753 mmHg 74%
10:00 +32°C° 0.2 mm 2 m/s 753 mmHg 67%
11:00 +33°C° 0.6 mm 3 m/s 753 mmHg 65%
12:00 +34°C° 0.6 mm 3 m/s 752 mmHg 63%
13:00 +34°C° 0.6 mm 3 m/s 752 mmHg 60%
14:00 +34°C° 0.5 mm 2 m/s 752 mmHg 61%
15:00 +34°C° 0.5 mm 2 m/s 751 mmHg 62%
16:00 +32°C° 0.5 mm 2 m/s 751 mmHg 62%
17:00 +31°C° 0.1 mm 2 m/s 751 mmHg 68%
18:00 +30°C° 0.1 mm 2 m/s 751 mmHg 74%
19:00 +29°C° 0.1 mm 2 m/s 752 mmHg 79%
20:00 +28°C° 0 mm 1 m/s 752 mmHg 82%
21:00 +28°C° 0 mm 1 m/s 753 mmHg 84%
22:00 +28°C° 0 mm 1 m/s 753 mmHg 86%
23:00 +27°C° 0 mm 1 m/s 753 mmHg 87%

18 Avril, Dimanche

Heure Température Précipitation Vent Pression Humidité
00:00 +27°C° 0 mm 1 m/s 753 mmHg 88%
01:00 +27°C° 0 mm 1 m/s 752 mmHg 89%
02:00 +27°C° 0 mm 1 m/s 752 mmHg 90%
03:00 +27°C° 0 mm 1 m/s 752 mmHg 90%
04:00 +27°C° 0 mm 1 m/s 752 mmHg 90%
05:00 +27°C° 0 mm 1 m/s 752 mmHg 90%
06:00 +25°C° 0 mm 0 m/s 753 mmHg 89%
07:00 +25°C° 0 mm 0 m/s 753 mmHg 89%
08:00 +29°C° 0 mm 1 m/s 753 mmHg 80%
09:00 +31°C° 0 mm 1 m/s 754 mmHg 71%
10:00 +34°C° 0 mm 2 m/s 754 mmHg 62%
11:00 +34°C° 0 mm 2 m/s 753 mmHg 60%
12:00 +34°C° 0 mm 2 m/s 753 mmHg 58%
13:00 +35°C° 0 mm 2 m/s 753 mmHg 57%
14:00 +34°C° 0.8 mm 2 m/s 752 mmHg 60%
15:00 +32°C° 0.8 mm 2 m/s 752 mmHg 64%
16:00 +32°C° 0.8 mm 2 m/s 751 mmHg 68%
17:00 +31°C° 0.1 mm 2 m/s 752 mmHg 72%
18:00 +30°C° 0.1 mm 2 m/s 752 mmHg 76%
19:00 +29°C° 0.1 mm 2 m/s 752 mmHg 80%
20:00 +29°C° 0 mm 2 m/s 753 mmHg 82%
21:00 +28°C° 0 mm 1 m/s 753 mmHg 84%
22:00 +28°C° 0 mm 1 m/s 754 mmHg 86%
23:00 +28°C° 0 mm 1 m/s 754 mmHg 87%

19 Avril, Lundi

Heure Température Précipitation Vent Pression Humidité
00:00 +26°C° 0 mm 0 m/s 753 mmHg 87%
01:00 +26°C° 0 mm 0 m/s 753 mmHg 88%
02:00 +26°C° 0 mm 0 m/s 753 mmHg 88%
03:00 +26°C° 0 mm 0 m/s 753 mmHg 89%
04:00 +26°C° 0 mm 0 m/s 752 mmHg 89%
05:00 +26°C° 0 mm 0 m/s 752 mmHg 89%
06:00 +26°C° 0 mm 0 m/s 753 mmHg 89%
07:00 +26°C° 0 mm 0 m/s 753 mmHg 89%
08:00 +29°C° 0 mm 1 m/s 753 mmHg 80%
09:00 +31°C° 0 mm 1 m/s 753 mmHg 72%
10:00 +33°C° 0 mm 1 m/s 754 mmHg 63%
11:00 +34°C° 0 mm 2 m/s 753 mmHg 62%
12:00 +35°C° 0 mm 2 m/s 753 mmHg 61%
13:00 +35°C° 0 mm 2 m/s 752 mmHg 60%
14:00 +35°C° 0.1 mm 2 m/s 752 mmHg 59%
15:00 +35°C° 0.1 mm 3 m/s 751 mmHg 59%
16:00 +35°C° 0.1 mm 3 m/s 750 mmHg 58%
17:00 +34°C° 0 mm 3 m/s 750 mmHg 64%
18:00 +31°C° 0 mm 3 m/s 751 mmHg 69%
19:00 +30°C° 0 mm 3 m/s 751 mmHg 75%
20:00 +29°C° 0.2 mm 3 m/s 751 mmHg 78%
21:00 +29°C° 0.2 mm 2 m/s 752 mmHg 82%
22:00 +28°C° 0.2 mm 2 m/s 753 mmHg 86%
23:00 +28°C° 0.3 mm 1 m/s 752 mmHg 87%

20 Avril, Mardi

Heure Température Précipitation Vent Pression Humidité
00:00 +28°C° 0.3 mm 1 m/s 752 mmHg 89%
01:00 +28°C° 0.3 mm 1 m/s 752 mmHg 91%
02:00 +27°C° 0 mm 1 m/s 752 mmHg 92%
03:00 +27°C° 0 mm 1 m/s 752 mmHg 92%
04:00 +27°C° 0 mm 1 m/s 752 mmHg 93%
05:00 +27°C° 0 mm 1 m/s 752 mmHg 92%
06:00 +28°C° 0 mm 1 m/s 753 mmHg 92%
07:00 +28°C° 0 mm 1 m/s 753 mmHg 91%
08:00 +29°C° 0 mm 1 m/s 753 mmHg 84%
09:00 +30°C° 0 mm 1 m/s 754 mmHg 77%
10:00 +31°C° 0 mm 1 m/s 754 mmHg 70%
11:00 +32°C° 0 mm 1 m/s 753 mmHg 68%
12:00 +32°C° 0 mm 2 m/s 753 mmHg 65%
13:00 +34°C° 0 mm 2 m/s 752 mmHg 63%
14:00 +32°C° 0 mm 2 m/s 752 mmHg 65%
15:00 +32°C° 0 mm 2 m/s 751 mmHg 67%
16:00 +32°C° 0 mm 2 m/s 750 mmHg 69%
17:00 +31°C° 0 mm 2 m/s 750 mmHg 73%
18:00 +30°C° 0 mm 2 m/s 751 mmHg 77%
19:00 +29°C° 0 mm 2 m/s 751 mmHg 81%
20:00 +28°C° 0 mm 2 m/s 751 mmHg 83%
21:00 +28°C° 0 mm 1 m/s 752 mmHg 86%
22:00 +28°C° 0 mm 1 m/s 752 mmHg 89%
23:00 +27°C° 0 mm 1 m/s 752 mmHg 90%
Voir plus

Nous avons besoin de votre consentement

Meteoprog et ses fournisseurs de services peuvent stocker et accéder à des données personnelles telles que des cookies, des identifiants d'appareils ou d'autres technologies similaires sur votre appareil et traiter ces données pour personnaliser le contenu et les publicités, ainsi que pour fournir des fonctionnalités de médias sociaux et analyser le trafic.

  • Stocker et/ou accéder à des informations sur votre appareil

    Des cookies, des identifiants d'appareils ou d'autres informations peuvent être stockés ou accessibles sur votre appareil aux fins indiquées ci-dessus.

  • Annonces et contenus personnalisés, mesure des annonces et des contenus, connaissance de l'audience et développement de produits

    Les annonces et le contenu peuvent être personnalisés en fonction d'un profil. D'autres données peuvent être ajoutées pour mieux personnaliser les annonces et le contenu. Les performances des publicités et du contenu peuvent être mesurées. Il est possible d'obtenir des informations sur le public qui a vu les publicités et le contenu. Ces données peuvent être utilisées pour développer ou améliorer l'expérience de l'utilisateur, les systèmes et les logiciels.

En cliquant sur "J'accepte", vous autorisez l'utilisation de cookies, des identifiants d'appareils, des balises web ou d'autres technologies similaires. Vos paramètres peuvent être modifiés dans le navigateur de votre appareil.

Dans certains cas, des intérêts légitimes peuvent être invoqués plutôt qu'un consentement. Vous pouvez en savoir plus à ce sujet dans notre Politique de confidentialité et de cookies.